Overview Statistics Trail Chart Weather Telemetry Raw packets
 

This is the latest recevied weather packets stored in our database for station/object KD7AWQ. If no packets are shown the sender has not sent any weather packets the latest 10 day(s).

<< 23 24 25 26 27 28 29 >>
Time Temp. Humidity Pressure Rain* Wind** Luminosity Snow
1788282663 25° C 51% 1190.6 hPa 0 mm - 467 W/m² -
1788282361 25° C 52% 1190.7 hPa 0 mm - 540 W/m² -
1788282056 25.56° C 49% 1190.5 hPa 0 mm - 499 W/m² -
1788281756 25.56° C 50% 1190.6 hPa 0 mm - 923 W/m² -
1788281451 25.56° C 49% 1190.7 hPa 0 mm - 927 W/m² -
1788281146 25° C 50% 1190.4 hPa 0 mm - 951 W/m² -
1788280842 25° C 50% 1190.6 hPa 0 mm - 926 W/m² -
1788280537 25.56° C 50% 1190.5 hPa 0 mm - 843 W/m² -
1788280236 25.56° C 48% 1190.5 hPa 0 mm - 809 W/m² -
1788279931 25.56° C 48% 1190.4 hPa 0 mm - 828 W/m² -
1788279630 25.56° C 48% 1190.5 hPa 0 mm - 709 W/m² -
1788279330 25.56° C 48% 1190.5 hPa 0 mm - 745 W/m² -
1788279029 26.11° C 45% 1190.3 hPa 0 mm - 469 W/m² -
1788278726 25.56° C 46% 1190 hPa 0 mm - 497 W/m² -
1788278421 25° C 47% 1189.8 hPa 0 mm - 442 W/m² -
1788278120 25.56° C 46% 1189.9 hPa 0 mm - 426 W/m² -
1788277816 25.56° C 46% 1189.9 hPa 0 mm - 546 W/m² -
1788277515 26.11° C 46% 1190 hPa 0 mm - 524 W/m² -
1788277210 25.56° C 46% 1189.8 hPa 0 mm - 501 W/m² -
1788276905 25.56° C 47% 1190 hPa 0 mm - 481 W/m² -
1788276605 25.56° C 48% 1190.3 hPa 0 mm - 459 W/m² -
1788276299 25° C 49% 1189.9 hPa 0 mm - 437 W/m² -
1788275998 25.56° C 47% 1189.7 hPa 0 mm - 415 W/m² -
1788275694 25° C 48% 1189.9 hPa 0 mm - 394 W/m² -
1788275393 25° C 49% 1189.8 hPa 0 mm - 371 W/m² -

* Rain latest hour (hover to see other rain measurements)
** Current wind speed in m/s (hover to see current wind gust speed)